This demonstration page uses our WeatherBlox Daily Observations layout. Learn more.

Left ArrowRight Arrow

39.92423, -83.80882

Hourly Observations for January 19, 2022

Temp ( °F °C ) Dew Point ( °F °C ) Humidity (%) Winds ( mph kmh ) Pressure ( in mb ) Visibility ( mi km ) Precip ( " mm )
12:56 am 00:56 Clear 35 1.7 30 -1.1 82 82 SSW 14 22 29.93 1014 10 16 0.00 0.00
1:56 am 01:56 Clear 36 2.2 31 -0.6 82 82 SW 18 30 29.92 1013 10 16 0.00 0.00
2:56 am 02:56 Clear 36 2.2 32 0 86 86 SW 15 24 29.92 1013 10 16 0.00 0.00
3:56 am 03:56 Clear 37 2.8 33 0.6 86 86 SSW 17 28 29.90 1013 10 16 0.00 0.00
4:56 am 04:56 Clear 37 2.8 33 0.6 86 86 SW 16 26 29.90 1012 10 16 0.00 0.00
5:56 am 05:56 Clear 37 2.8 33 0.6 86 86 SSW 14 22 29.90 1013 10 16 0.00 0.00
6:56 am 06:56 Clear 37 2.8 33 0.6 86 86 SW 12 19 29.93 1013 10 16 0.00 0.00
7:56 am 07:56 Partly Cloudy 37 2.8 33 0.6 86 86 SW 10 17 29.95 1014 10 16 0.00 0.00
8:18 am 08:18 Cloudy 37 3 34 1 87 87 SW 12 19 29.96 1015 10 16 0.00 0.00
8:56 am 08:56 Cloudy 39 3.9 34 1.1 82 82 SW 15 24 29.96 1015 10 16 0.00 0.00
9:56 am 09:56 Cloudy 41 5 35 1.7 79 79 WSW 16 26 29.98 1015 10 16 0.00 0.00
10:27 am 10:27 Partly Cloudy 43 6 36 2 76 76 WSW 15 24 29.98 1015 10 16 0.00 0.00
10:56 am 10:56 Mostly Sunny 44 6.7 36 2.2 73 73 WSW 17 28 29.98 1015 10 16 0.00 0.00
11:56 am 11:56 Sunny 44 6.7 37 2.8 76 76 WSW 18 30 29.97 1015 10 16 0.00 0.00
12:56 pm 12:56 Sunny 47 8.3 37 2.8 69 69 W 13 20 29.96 1015 10 16 0.00 0.00
1:56 pm 13:56 Sunny 47 8.3 35 1.7 63 63 W 16 26 29.95 1014 10 16 0.00 0.00
2:56 pm 14:56 Mostly Cloudy 46 7.8 31 -0.6 56 56 W 15 24 29.96 1015 10 16 0.00 0.00
3:56 pm 15:56 Mostly Cloudy 44 6.7 29 -1.7 55 55 WNW 13 20 29.98 1015 10 16 0.00 0.00
4:56 pm 16:56 Mostly Cloudy 42 5.6 26 -3.3 53 53 NW 15 24 30.01 1016 10 16 0.00 0.00
5:56 pm 17:56 Cloudy 36 2.2 25 -3.9 64 64 WNW 14 22 30.05 1018 10 16 0.00 0.00
6:56 pm 18:56 Cloudy 34 1.1 25 -3.9 70 70 NW 14 22 30.08 1019 10 16 0.00 0.00
7:56 pm 19:56 Mostly Cloudy 31 -0.6 25 -3.9 79 79 NW 20 31 30.11 1020 10 16 0.00 0.00
8:56 pm 20:56 Cloudy 29 -1.7 24 -4.4 82 82 NNW 18 30 30.15 1021 10 16 0.00 0.00
9:14 pm 21:14 Cloudy 28 -2 23 -5 80 80 NNW 20 31 30.18 1022 10 16 0.00 0.00
9:56 pm 21:56 Cloudy 25 -3.9 21 -6.1 85 85 NNW 18 30 30.18 1022 10 16 0.00 0.00
10:56 pm 22:56 Cloudy 24 -4.4 19 -7.2 81 81 N 13 20 30.21 1023 10 16 0.00 0.00
11:56 pm 23:56 Cloudy 22 -5.6 16 -8.9 78 78 N 17 28 30.24 1024 10 16 0.00 0.00

Powered by AerisWeather